FLI401 EKVG-BIKF

Flight info

Callsign FLI401
Flight time 1h 17m
Altitude 36000
Route MY DCT ING DCT NASBU NASBU4K
Aircraft A320/M-SDE3FGHIRWY/LB1

Departure

Time 2026-04-27 09:46
Airport Vágar Airport (EKVG)

Arrival

Time 2026-04-27 11:03
Airport Keflavik International Airport (BIKF)
Time Latitude Longitude Altitude Speed Heading
2026-04-27 09:01 62.06691 -7.27940 279 ft 0 kts 29°
2026-04-27 09:37 62.06687 -7.27945 280 ft 4 kts 29°
2026-04-27 09:37 62.06667 -7.27975 284 ft 4 kts 70°
2026-04-27 09:38 62.06667 -7.28021 283 ft 4 kts 102°
2026-04-27 09:38 62.06674 -7.28075 284 ft 4 kts 115°
2026-04-27 09:38 62.06687 -7.28125 283 ft 4 kts 124°
2026-04-27 09:38 62.06703 -7.28172 286 ft 4 kts 126°
2026-04-27 09:39 62.06708 -7.28185 280 ft 0 kts 124°
2026-04-27 09:42 62.06676 -7.28116 279 ft 8 kts 145°
2026-04-27 09:42 62.06626 -7.28090 279 ft 7 kts 174°
2026-04-27 09:42 62.06581 -7.28092 282 ft 6 kts 187°
2026-04-27 09:42 62.06545 -7.28110 279 ft 4 kts 196°
2026-04-27 09:43 62.06505 -7.28141 280 ft 14 kts 201°
2026-04-27 09:43 62.06435 -7.28028 281 ft 18 kts 117°
2026-04-27 09:43 62.06367 -7.27752 289 ft 24 kts 117°
2026-04-27 09:43 62.06287 -7.27429 284 ft 26 kts 117°
2026-04-27 09:44 62.06197 -7.27068 275 ft 30 kts 118°
2026-04-27 09:44 62.06101 -7.26677 262 ft 27 kts 118°
2026-04-27 09:44 62.06016 -7.26340 249 ft 26 kts 117°
2026-04-27 09:44 62.05955 -7.26094 241 ft 11 kts 118°
2026-04-27 09:45 62.05929 -7.26016 241 ft 4 kts 78°
2026-04-27 09:45 62.05947 -7.26007 241 ft 2 kts 340°
2026-04-27 09:45 62.05956 -7.26093 241 ft 7 kts 285°
2026-04-27 09:45 62.05993 -7.26242 246 ft 34 kts 298°
2026-04-27 09:46 62.06235 -7.27217 281 ft 113 kts 298°
2026-04-27 09:46 62.06703 -7.29097 425 ft 160 kts 297°
2026-04-27 09:46 62.07244 -7.31296 973 ft 174 kts 295°
2026-04-27 09:46 62.07667 -7.33721 1862 ft 176 kts 281°
2026-04-27 09:47 62.08055 -7.36191 2610 ft 172 kts 287°
2026-04-27 09:47 62.08428 -7.38644 3156 ft 177 kts 283°
2026-04-27 09:47 62.08729 -7.41280 3546 ft 192 kts 281°
2026-04-27 09:47 62.09043 -7.44204 3823 ft 212 kts 281°
2026-04-27 09:48 62.09397 -7.47408 4146 ft 232 kts 282°
2026-04-27 09:48 62.09786 -7.50881 4599 ft 252 kts 282°
2026-04-27 09:48 62.10206 -7.54592 5314 ft 261 kts 282°
2026-04-27 09:48 62.10661 -7.58362 6134 ft 264 kts 288°
2026-04-27 09:49 62.11412 -7.61927 6946 ft 269 kts 295°
2026-04-27 09:49 62.12257 -7.65515 7763 ft 272 kts 295°
2026-04-27 09:49 62.13102 -7.69147 8581 ft 275 kts 295°
2026-04-27 09:49 62.13952 -7.72831 9398 ft 278 kts 295°
2026-04-27 09:50 62.14809 -7.76564 10077 ft 283 kts 295°
2026-04-27 09:50 62.15676 -7.80341 10292 ft 283 kts 295°
2026-04-27 09:50 62.16559 -7.84188 10689 ft 298 kts 295°
2026-04-27 09:50 62.17510 -7.88331 10904 ft 320 kts 296°
2026-04-27 09:51 62.18513 -7.92695 11395 ft 331 kts 296°
2026-04-27 09:51 62.19532 -7.97141 12089 ft 335 kts 296°
2026-04-27 09:51 62.20560 -8.01652 12820 ft 338 kts 296°
2026-04-27 09:51 62.21590 -8.06198 13552 ft 340 kts 296°
2026-04-27 09:52 62.22629 -8.10774 14254 ft 343 kts 296°
2026-04-27 09:52 62.23675 -8.15396 14899 ft 345 kts 296°
2026-04-27 09:52 62.24723 -8.20047 15563 ft 346 kts 296°
2026-04-27 09:52 62.25772 -8.24712 16224 ft 347 kts 297°
2026-04-27 09:53 62.26821 -8.29379 16881 ft 349 kts 297°
2026-04-27 09:53 62.27878 -8.34080 17546 ft 350 kts 297°
2026-04-27 09:53 62.28940 -8.38808 18177 ft 352 kts 297°
2026-04-27 09:53 62.30007 -8.43566 18772 ft 354 kts 297°
2026-04-27 09:54 62.31064 -8.48306 19303 ft 357 kts 297°
2026-04-27 09:54 62.32137 -8.53133 19833 ft 359 kts 297°
2026-04-27 09:54 62.33214 -8.58003 20358 ft 362 kts 297°
2026-04-27 09:54 62.34297 -8.62912 20882 ft 364 kts 297°
2026-04-27 09:55 62.35391 -8.67874 21403 ft 367 kts 297°
2026-04-27 09:55 62.36489 -8.72869 21923 ft 370 kts 297°
2026-04-27 09:55 62.38704 -8.82948 22918 ft 374 kts 297°
2026-04-27 09:56 62.39814 -8.88018 23473 ft 375 kts 297°
2026-04-27 09:56 62.40928 -8.93114 23950 ft 377 kts 297°
2026-04-27 09:56 62.42045 -8.98238 24358 ft 378 kts 297°
2026-04-27 09:56 62.43150 -9.03323 24759 ft 379 kts 297°
2026-04-27 09:57 62.44279 -9.08552 25171 ft 381 kts 297°
2026-04-27 09:57 62.45385 -9.13690 25555 ft 382 kts 297°
2026-04-27 09:57 62.46522 -9.18958 25936 ft 383 kts 297°
2026-04-27 09:57 62.47651 -9.24187 26312 ft 384 kts 297°
2026-04-27 09:58 62.48767 -9.29372 26675 ft 386 kts 297°
2026-04-27 09:58 62.49909 -9.34701 27046 ft 387 kts 297°
2026-04-27 09:58 62.51026 -9.39936 27395 ft 388 kts 297°
2026-04-27 09:58 62.52173 -9.45327 27762 ft 390 kts 297°
2026-04-27 09:59 62.53303 -9.50668 28107 ft 391 kts 297°
2026-04-27 09:59 62.54422 -9.55972 28450 ft 392 kts 297°
2026-04-27 09:59 62.55560 -9.61356 28756 ft 393 kts 297°
2026-04-27 09:59 62.56701 -9.66755 29060 ft 395 kts 297°
2026-04-27 10:00 62.57842 -9.72180 29372 ft 396 kts 296°
2026-04-27 10:00 62.58982 -9.77626 29673 ft 397 kts 296°
2026-04-27 10:00 62.60125 -9.83098 29966 ft 398 kts 296°
2026-04-27 10:00 62.61268 -9.88590 30235 ft 400 kts 296°
2026-04-27 10:01 62.62414 -9.94110 30484 ft 401 kts 296°
2026-04-27 10:01 62.63562 -9.99653 30720 ft 402 kts 296°
2026-04-27 10:01 62.64706 -10.05189 30935 ft 402 kts 296°
2026-04-27 10:01 62.65856 -10.10751 31180 ft 402 kts 296°
2026-04-27 10:02 62.66996 -10.16285 31508 ft 400 kts 296°
2026-04-27 10:02 62.68131 -10.21805 31823 ft 398 kts 296°
2026-04-27 10:02 62.69254 -10.27289 32150 ft 395 kts 296°
2026-04-27 10:02 62.70369 -10.32765 32474 ft 393 kts 296°
2026-04-27 10:03 62.71471 -10.38190 32799 ft 391 kts 296°
2026-04-27 10:03 62.72556 -10.43533 33094 ft 389 kts 296°
2026-04-27 10:03 62.73648 -10.48919 33398 ft 388 kts 296°
2026-04-27 10:03 62.74732 -10.54286 33735 ft 385 kts 295°
2026-04-27 10:04 62.75806 -10.59609 34075 ft 383 kts 295°
2026-04-27 10:04 62.76875 -10.64914 34387 ft 381 kts 295°
2026-04-27 10:04 62.77936 -10.70205 34617 ft 380 kts 295°
2026-04-27 10:04 62.78993 -10.75512 34804 ft 381 kts 295°
2026-04-27 10:05 62.80055 -10.80834 34966 ft 382 kts 295°
2026-04-27 10:05 62.81119 -10.86179 35136 ft 384 kts 295°
2026-04-27 10:05 62.82180 -10.91522 35291 ft 385 kts 295°
2026-04-27 10:05 62.83246 -10.96915 35436 ft 386 kts 295°
2026-04-27 10:06 62.84308 -11.02324 35584 ft 387 kts 295°
2026-04-27 10:06 62.85367 -11.07744 35740 ft 388 kts 295°
2026-04-27 10:06 62.86430 -11.13187 35876 ft 389 kts 295°
2026-04-27 10:06 62.87500 -11.18654 36025 ft 390 kts 295°
2026-04-27 10:07 62.88567 -11.24112 36185 ft 390 kts 294°
2026-04-27 10:07 62.89636 -11.29590 36227 ft 390 kts 294°
2026-04-27 10:07 62.91761 -11.40483 36234 ft 388 kts 294°
2026-04-27 10:08 62.93850 -11.51304 36231 ft 387 kts 294°
2026-04-27 10:08 62.95935 -11.62203 36258 ft 387 kts 293°
2026-04-27 10:09 62.98005 -11.73100 36229 ft 386 kts 293°
2026-04-27 10:09 63.00069 -11.83997 36225 ft 385 kts 293°
2026-04-27 10:10 63.02137 -11.94892 36215 ft 385 kts 293°
2026-04-27 10:10 63.04186 -12.05802 36218 ft 385 kts 293°
2026-04-27 10:11 63.06214 -12.16729 36208 ft 385 kts 292°
2026-04-27 10:11 63.08234 -12.27642 36219 ft 384 kts 292°
2026-04-27 10:12 63.10244 -12.38528 36213 ft 383 kts 292°
2026-04-27 10:12 63.12250 -12.49442 36210 ft 383 kts 292°
2026-04-27 10:13 63.14248 -12.60367 36209 ft 383 kts 292°
2026-04-27 10:13 63.16225 -12.71298 36207 ft 382 kts 292°
2026-04-27 10:14 63.18186 -12.82158 36220 ft 382 kts 291°
2026-04-27 10:14 63.20144 -12.93082 36216 ft 381 kts 291°
2026-04-27 10:15 63.22090 -13.04008 36198 ft 380 kts 290°
2026-04-27 10:15 63.24021 -13.14926 36200 ft 380 kts 290°
2026-04-27 10:16 63.25950 -13.25836 36191 ft 379 kts 290°
2026-04-27 10:16 63.27870 -13.36757 36189 ft 379 kts 290°
2026-04-27 10:17 63.29776 -13.47684 36187 ft 379 kts 290°
2026-04-27 10:17 63.31673 -13.58636 36182 ft 379 kts 290°
2026-04-27 10:18 63.33557 -13.69581 36171 ft 379 kts 290°
2026-04-27 10:18 63.35428 -13.80497 36171 ft 379 kts 290°
2026-04-27 10:19 63.37299 -13.91478 36188 ft 379 kts 289°
2026-04-27 10:19 63.39168 -14.02475 36179 ft 379 kts 289°
2026-04-27 10:20 63.41020 -14.13473 36176 ft 379 kts 289°
2026-04-27 10:20 63.42864 -14.24502 36158 ft 379 kts 289°
2026-04-27 10:21 63.44704 -14.35553 36153 ft 379 kts 288°
2026-04-27 10:21 63.46526 -14.46600 36154 ft 379 kts 288°
2026-04-27 10:22 63.48346 -14.57673 36148 ft 379 kts 288°
2026-04-27 10:22 63.50156 -14.68675 36145 ft 379 kts 288°
2026-04-27 10:23 63.51960 -14.79755 36135 ft 379 kts 287°
2026-04-27 10:23 63.53756 -14.90870 36126 ft 379 kts 287°
2026-04-27 10:24 63.55242 -15.00126 36127 ft 380 kts 287°
2026-04-27 10:24 63.57029 -15.11304 36159 ft 381 kts 287°
2026-04-27 10:25 63.58800 -15.22478 36147 ft 379 kts 287°
2026-04-27 10:25 63.60563 -15.33658 36137 ft 379 kts 287°
2026-04-27 10:26 63.62320 -15.44850 36130 ft 380 kts 287°
2026-04-27 10:26 63.64071 -15.56077 36131 ft 379 kts 287°
2026-04-27 10:27 63.65811 -15.67292 36130 ft 380 kts 286°
2026-04-27 10:27 63.67527 -15.78460 36122 ft 380 kts 285°
2026-04-27 10:28 63.69247 -15.89723 36119 ft 380 kts 285°
2026-04-27 10:28 63.70960 -16.01001 36114 ft 380 kts 285°
2026-04-27 10:29 63.72670 -16.12292 36119 ft 381 kts 285°
2026-04-27 10:29 63.74375 -16.23621 36121 ft 381 kts 285°
2026-04-27 10:30 63.76065 -16.34978 36123 ft 381 kts 285°
2026-04-27 10:30 63.77743 -16.46326 36113 ft 380 kts 285°
2026-04-27 10:31 63.79408 -16.57673 36120 ft 380 kts 285°
2026-04-27 10:31 63.80590 -16.69232 36114 ft 377 kts 275°
2026-04-27 10:32 63.81189 -16.80997 36099 ft 376 kts 275°
2026-04-27 10:32 63.81778 -16.92716 36110 ft 377 kts 275°
2026-04-27 10:33 63.82364 -17.04510 36091 ft 377 kts 275°
2026-04-27 10:33 63.82933 -17.16289 36090 ft 377 kts 274°
2026-04-27 10:34 63.83490 -17.28097 36096 ft 377 kts 275°
2026-04-27 10:34 63.84042 -17.39912 36090 ft 377 kts 274°
2026-04-27 10:35 63.84584 -17.51757 36085 ft 377 kts 274°
2026-04-27 10:35 63.85123 -17.63587 36086 ft 378 kts 274°
2026-04-27 10:36 63.85647 -17.75424 36076 ft 378 kts 273°
2026-04-27 10:36 63.86161 -17.87279 36070 ft 377 kts 273°
2026-04-27 10:37 63.86673 -17.99109 36091 ft 377 kts 273°
2026-04-27 10:37 63.87169 -18.10962 36072 ft 377 kts 272°
2026-04-27 10:38 63.87653 -18.22795 36068 ft 377 kts 272°
2026-04-27 10:38 63.88124 -18.34590 36066 ft 377 kts 272°
2026-04-27 10:39 63.88588 -18.46456 36046 ft 378 kts 272°
2026-04-27 10:39 63.89046 -18.58412 36045 ft 378 kts 272°
2026-04-27 10:40 63.89493 -18.70246 35859 ft 379 kts 271°
2026-04-27 10:40 63.89716 -18.76203 35578 ft 378 kts 271°
2026-04-27 10:40 63.89937 -18.82158 35323 ft 378 kts 271°
2026-04-27 10:41 63.90152 -18.88109 35058 ft 379 kts 271°
2026-04-27 10:41 63.90364 -18.94089 34394 ft 380 kts 271°
2026-04-27 10:41 63.90575 -19.00080 33590 ft 381 kts 271°
2026-04-27 10:41 63.90784 -19.06074 32974 ft 377 kts 271°
2026-04-27 10:42 63.90990 -19.11960 32509 ft 371 kts 270°
2026-04-27 10:42 63.91191 -19.17764 32029 ft 366 kts 270°
2026-04-27 10:42 63.91385 -19.23480 31555 ft 361 kts 270°
2026-04-27 10:42 63.91572 -19.29135 31092 ft 357 kts 270°
2026-04-27 10:43 63.91755 -19.34745 30630 ft 353 kts 269°
2026-04-27 10:43 63.91934 -19.40280 30178 ft 350 kts 269°
2026-04-27 10:43 63.92108 -19.45762 29673 ft 347 kts 269°
2026-04-27 10:43 63.92280 -19.51209 29210 ft 344 kts 269°
2026-04-27 10:44 63.92450 -19.56596 28779 ft 340 kts 269°
2026-04-27 10:44 63.92614 -19.61928 28345 ft 337 kts 269°
2026-04-27 10:44 63.92771 -19.67156 27928 ft 333 kts 269°
2026-04-27 10:44 63.92931 -19.72451 27503 ft 329 kts 269°
2026-04-27 10:45 63.93086 -19.77556 27086 ft 326 kts 269°
2026-04-27 10:45 63.93239 -19.82659 26678 ft 323 kts 269°
2026-04-27 10:45 63.93387 -19.87739 26289 ft 321 kts 269°
2026-04-27 10:45 63.93531 -19.92928 25930 ft 341 kts 268°
2026-04-27 10:46 63.93677 -19.98392 25488 ft 350 kts 268°
2026-04-27 10:46 63.93831 -20.03916 25064 ft 351 kts 268°
2026-04-27 10:46 63.93987 -20.09452 24649 ft 350 kts 268°
2026-04-27 10:46 63.94143 -20.14971 24236 ft 349 kts 268°
2026-04-27 10:47 63.94293 -20.20456 23827 ft 347 kts 268°
2026-04-27 10:47 63.94438 -20.25920 23397 ft 345 kts 268°
2026-04-27 10:47 63.94580 -20.31356 22917 ft 344 kts 268°
2026-04-27 10:47 63.94722 -20.36775 22462 ft 342 kts 268°
2026-04-27 10:48 63.94866 -20.42165 22019 ft 340 kts 268°
2026-04-27 10:48 63.95012 -20.47507 21571 ft 338 kts 268°
2026-04-27 10:48 63.95156 -20.52831 21126 ft 337 kts 268°
2026-04-27 10:48 63.95295 -20.58146 20668 ft 334 kts 268°
2026-04-27 10:49 63.95429 -20.63388 20225 ft 331 kts 267°
2026-04-27 10:49 63.95559 -20.68608 19778 ft 329 kts 267°
2026-04-27 10:49 63.95686 -20.73794 19332 ft 327 kts 267°
2026-04-27 10:49 63.95813 -20.78934 18908 ft 325 kts 267°
2026-04-27 10:50 63.95937 -20.84068 18449 ft 323 kts 267°
2026-04-27 10:50 63.96059 -20.89137 17990 ft 321 kts 267°
2026-04-27 10:50 63.96181 -20.94222 17544 ft 319 kts 267°
2026-04-27 10:50 63.96300 -20.99248 17122 ft 317 kts 267°
2026-04-27 10:51 63.96414 -21.04266 16708 ft 316 kts 267°
2026-04-27 10:51 63.96526 -21.09250 16291 ft 315 kts 267°
2026-04-27 10:51 63.96637 -21.14226 15868 ft 314 kts 267°
2026-04-27 10:51 63.96745 -21.19102 15470 ft 312 kts 267°
2026-04-27 10:52 63.96854 -21.24024 15065 ft 310 kts 267°
2026-04-27 10:52 63.96957 -21.28915 14665 ft 309 kts 267°
2026-04-27 10:52 63.97055 -21.33793 14264 ft 308 kts 266°
2026-04-27 10:52 63.97153 -21.38670 13859 ft 308 kts 266°
2026-04-27 10:53 63.97253 -21.43532 13426 ft 307 kts 268°
2026-04-27 10:53 63.98486 -21.52960 12573 ft 316 kts 287°
2026-04-27 10:53 63.99416 -21.57500 12142 ft 314 kts 287°
2026-04-27 10:54 64.00330 -21.61991 11726 ft 312 kts 287°
2026-04-27 10:54 64.01227 -21.66438 11309 ft 313 kts 287°
2026-04-27 10:54 64.02130 -21.70951 10881 ft 313 kts 287°
2026-04-27 10:54 64.03035 -21.75474 10451 ft 313 kts 287°
2026-04-27 10:55 64.03937 -21.79975 10122 ft 310 kts 287°
2026-04-27 10:55 64.04832 -21.84449 10046 ft 311 kts 287°
2026-04-27 10:55 64.05725 -21.88940 9914 ft 310 kts 287°
2026-04-27 10:55 64.06623 -21.93446 9533 ft 312 kts 287°
2026-04-27 10:56 64.07508 -21.97883 9335 ft 301 kts 287°
2026-04-27 10:56 64.08360 -22.02131 9196 ft 288 kts 287°
2026-04-27 10:56 64.09179 -22.06241 8920 ft 281 kts 287°
2026-04-27 10:56 64.09979 -22.10303 8513 ft 279 kts 287°
2026-04-27 10:57 64.10770 -22.14348 8077 ft 279 kts 287°
2026-04-27 10:57 64.11564 -22.18412 7633 ft 279 kts 287°
2026-04-27 10:57 64.12355 -22.22461 7186 ft 279 kts 287°
2026-04-27 10:57 64.13148 -22.26527 6746 ft 279 kts 287°
2026-04-27 10:58 64.13937 -22.30584 6307 ft 280 kts 288°
2026-04-27 10:58 64.14721 -22.34595 6129 ft 269 kts 288°
2026-04-27 10:58 64.15469 -22.38410 5995 ft 256 kts 286°
2026-04-27 10:58 64.15894 -22.42207 5717 ft 239 kts 267°
2026-04-27 10:59 64.15777 -22.45842 5148 ft 227 kts 249°
2026-04-27 10:59 64.15264 -22.49227 4543 ft 224 kts 244°
2026-04-27 10:59 64.14726 -22.52566 3908 ft 224 kts 245°
2026-04-27 11:00 64.13387 -22.58726 3001 ft 208 kts 218°
2026-04-27 11:00 64.12162 -22.60277 2758 ft 198 kts 193°
2026-04-27 11:00 64.10823 -22.60542 2507 ft 188 kts 180°
2026-04-27 11:00 64.09561 -22.60538 2282 ft 174 kts 180°
2026-04-27 11:01 64.08393 -22.60536 2069 ft 163 kts 180°
2026-04-27 11:01 64.07280 -22.60536 1828 ft 157 kts 179°
2026-04-27 11:01 64.06226 -22.60538 1620 ft 147 kts 179°
2026-04-27 11:01 64.05228 -22.60539 1421 ft 140 kts 180°
2026-04-27 11:02 64.04267 -22.60540 1229 ft 137 kts 180°
2026-04-27 11:02 64.03318 -22.60540 1041 ft 136 kts 180°
2026-04-27 11:02 64.02365 -22.60541 848 ft 137 kts 180°
2026-04-27 11:02 64.01416 -22.60541 701 ft 136 kts 179°
2026-04-27 11:03 64.00474 -22.60580 520 ft 135 kts 178°
2026-04-27 11:03 63.99539 -22.60543 287 ft 134 kts 178°
2026-04-27 11:03 63.98630 -22.60546 175 ft 121 kts 179°
2026-04-27 11:03 63.98053 -22.60540 171 ft 41 kts 180°
2026-04-27 11:04 63.97834 -22.60542 172 ft 27 kts 180°
2026-04-27 11:04 63.97654 -22.60539 173 ft 27 kts 180°
2026-04-27 11:04 63.97457 -22.60566 172 ft 18 kts 205°
2026-04-27 11:04 63.97443 -22.60779 168 ft 13 kts 281°
2026-04-27 11:05 63.97484 -22.60932 166 ft 10 kts 338°
2026-04-27 11:05 63.97539 -22.60940 166 ft 7 kts 359°
2026-04-27 11:05 63.97630 -22.60939 168 ft 19 kts
2026-04-27 11:05 63.97760 -22.60941 170 ft 17 kts 360°
2026-04-27 11:06 63.97856 -22.60940 170 ft 11 kts
2026-04-27 11:06 63.97919 -22.60941 169 ft 9 kts 360°
2026-04-27 11:06 63.98014 -22.60941 169 ft 18 kts 360°
2026-04-27 11:06 63.98164 -22.60941 166 ft 24 kts
2026-04-27 11:07 63.98310 -22.60940 165 ft 18 kts 359°
2026-04-27 11:07 63.98414 -22.60940 166 ft 12 kts 360°
2026-04-27 11:07 63.98478 -22.60941 166 ft 6 kts 359°
2026-04-27 11:07 63.98560 -22.60940 165 ft 20 kts
2026-04-27 11:08 63.98748 -22.60938 163 ft 28 kts
2026-04-27 11:08 63.98888 -22.60940 166 ft 15 kts
2026-04-27 11:08 63.98999 -22.60939 167 ft 21 kts
2026-04-27 11:08 63.99117 -22.60936 163 ft 15 kts 359°
2026-04-27 11:09 63.99173 -22.61063 158 ft 12 kts 271°
2026-04-27 11:09 63.99176 -22.61236 155 ft 10 kts 275°
2026-04-27 11:09 63.99176 -22.61385 152 ft 9 kts 269°
2026-04-27 11:09 63.99173 -22.61563 148 ft 14 kts 267°
2026-04-27 11:10 63.99173 -22.61802 143 ft 16 kts 271°
2026-04-27 11:10 63.99196 -22.61988 140 ft 13 kts 343°
2026-04-27 11:10 63.99256 -22.61986 140 ft 13 kts
2026-04-27 11:10 63.99353 -22.61985 140 ft 14 kts 359°
2026-04-27 11:11 63.99437 -22.62050 140 ft 12 kts 330°
2026-04-27 11:11 63.99470 -22.61893 140 ft 7 kts 91°
2026-04-27 11:11 63.99457 -22.61830 140 ft 7 kts 151°
2026-04-27 11:11 63.99408 -22.61829 140 ft 2 kts 181°
2026-04-27 11:12 63.99403 -22.61829 140 ft 0 kts 180°
2026-04-27 11:12 63.99401 -22.61829 140 ft 0 kts 181°